Home > Weather > Ganderkesee > Past weeks

Flag for Germany Weather for the Past 2 Weeks in Ganderkesee, Lower Saxony, Germany

Now
59 °F

Sunny.


Feels Like: 59 °F
Forecast: 42 / 61 °F
Wind: 5 mph from North

Location: Bremen Airport

Current Time: May 4, 2016 at 4:42:37 PM

Latest Report: May 4, 2016 at 3:50 PM


Visibility: 10 mi

Pressure: 30.39 "Hg

Humidity: 42%

Dew Point: 36 °F

Location of GanderkeseeLocation

Historic Weather in Ganderkesee — Graph

°F

Ganderkesee Temperature Yesterday

Maximum temperature yesterday: 55 °F (at 3:50 PM)
Minimum temperature yesterday: 41 °F (at 11:20 PM)
Average temperature yesterday: 50 °F

High & Low Weather Summary for the Past Weeks

 TemperatureHumidityPressure
High66 °F (May 2, 2:50 PM)100% (Apr 21, 4:20 AM)30.45 "Hg (Apr 21, 4:20 AM)
Low28 °F (Apr 25, 2:20 AM)37% (May 2, 4:20 PM)29.36 "Hg (Apr 26, 12:20 PM)
Average44 °F77%30.01 "Hg
* Reported Apr 19 3:20 PM — May 4 3:20 PM, Ganderkesee, Weather by CustomWeather, © 2016

Note: Actual official high and low records may vary slightly from our data, if they occured in-between our weather recording intervals... More about our weather records

Advertising

Ganderkesee Weather History for the Previous 24 Hours

Scroll right to see more
 ConditionsComfort  
Time TempWeatherWind HumidityBarometerVisibility
3:20 PM
Wed, May 4
59 °FPassing clouds.5 mph42%30.39 "HgN/A
2:50 PM55 °FScattered clouds.6 mph51%30.39 "HgN/A
2:20 PM55 °FPassing clouds.6 mph47%30.39 "HgN/A
1:20 PM57 °FScattered clouds.6 mph51%30.39 "HgN/A
12:50 PM54 °FScattered clouds.6 mph47%30.39 "HgN/A
12:20 PM54 °FPartly sunny.8 mph54%30.42 "HgN/A
11:20 AM54 °FPartly sunny.5 mph58%30.42 "HgN/A
10:50 AM52 °FScattered clouds.8 mph58%30.42 "HgN/A
9:50 AM50 °FPassing clouds.7 mph71%30.42 "HgN/A
9:20 AM48 °FPassing clouds.8 mph82%30.42 "HgN/A
8:20 AM45 °FClear.3 mph87%30.39 "Hg5 mi
7:50 AM41 °FClear.3 mph100%30.39 "Hg5 mi
7:20 AM39 °FFog.3 mph100%30.39 "Hg3 mi
6:20 AM36 °FFog.3 mph100%30.39 "Hg4 mi
5:50 AM37 °FFog.3 mph93%30.36 "Hg4 mi
5:20 AM36 °FFog.2 mph100%30.36 "Hg4 mi
4:50 AM37 °FFog.No wind100%30.36 "HgN/A
4:20 AM36 °FFog.2 mph100%30.36 "HgN/A
3:50 AM36 °FFog.2 mph100%30.33 "HgN/A
3:20 AM37 °FFog.2 mph100%30.33 "HgN/A
2:50 AM37 °FFog.3 mph100%30.33 "HgN/A
2:20 AM39 °FFog.3 mph93%30.33 "HgN/A
1:50 AM37 °FClear.3 mph100%30.33 "Hg10 mi
12:50 AM39 °FClear.3 mph93%30.33 "Hg10 mi
12:20 AM41 °FClear.6 mph87%30.33 "Hg10 mi
11:50 PM
Tue, May 3
41 °FClear.6 mph81%30.33 "Hg10 mi
11:20 PM41 °FPassing clouds.6 mph87%30.30 "HgN/A
10:50 PM43 °FPassing clouds.6 mph81%30.30 "HgN/A
10:20 PM46 °FPassing clouds.8 mph76%30.30 "HgN/A
9:50 PM46 °FPassing clouds.8 mph76%30.30 "HgN/A
9:20 PM48 °FPassing clouds.13 mph71%30.27 "HgN/A
8:50 PM48 °FPassing clouds.10 mph71%30.27 "HgN/A
8:20 PM50 °FPassing clouds.13 mph67%30.24 "HgN/A
7:50 PM50 °FPassing clouds.16 mph67%30.24 "HgN/A
7:20 PM52 °FScattered clouds.14 mph62%30.24 "HgN/A
6:50 PM54 °FScattered clouds.16 mph58%30.21 "HgN/A
6:20 PM54 °FScattered clouds.17 mph58%30.21 "HgN/A
5:50 PM54 °FScattered clouds.17 mph54%30.21 "HgN/A
5:20 PM55 °FScattered clouds.17 mph55%30.18 "HgN/A
4:50 PM54 °FScattered clouds.17 mph58%30.18 "HgN/A
4:20 PM55 °FScattered clouds.15 mph59%30.18 "HgN/A
Weather by CustomWeather, © 2016

See weather overviewHow to use our weather pages